Location: Creston
(40.9870°N, 81.8938°W)
Time: 17:58:13
(UTC+00:00)

Cosmos 1300 - Pass Details

Date: 29 October 2020
Orbit: 511 x 513 km, 82.5° (Epoch: 23 November)

Event Time Altitude Azimuth Distance (km) Brightness Sun altitude
Rises 23:23:04 0° 204° (SSW) 2,614 6.8 -11.2°
Reaches altitude 10° 23:25:17 10° 213° (SSW) 1,733 6.0 -11.6°
Maximum altitude 23:28:51 38° 282° (WNW) 803 4.3 -12.3°
Drops below altitude 10° 23:32:26 10° 351° (N) 1,746 5.4 -13.0°
Sets 23:34:41 0° 0° (N) 2,638 6.2 -13.4°
